Orbital Elements at Epoch 2459000.5 (2020-May-31.0) TDB
Reference: JPL 15 (heliocentric ecliptic J2000)
Element | Value | Uncertainty (1-sigma) | Units |
e | .1386667027827078 | 4.9374e-08 | |
a | 1.929815502794011 | 1.2701e-08 | au |
q | 1.662214350042613 | 9.8023e-08 | au |
i | 23.75235182852268 | 5.2732e-06 | deg |
node | 144.8777676065689 | 1.3914e-05 | deg |
peri | 267.5380338220396 | 2.3193e-05 | deg |
M | 336.9796310684736 | 2.1958e-05 | deg |
tp | 2459063.115505631626 (2020-Aug-01.61550563) | 5.9967e-05 | TDB |
period | 979.2015972652235 2.68 | 9.6666e-06 2.647e-08 | d yr |
n | .3676464591208091 | 3.6294e-09 | deg/d |
Q | 2.19741665554541 | 1.4462e-08 | au |
|
| | Orbit Determination Parameters
Additional Information
|